Time,TemperatureF,DewpointF,PressureIn,WindDirection,WindDirectionDegrees,WindSpeedMPH,WindSpeedGustMPH,Humidity,HourlyPrecipIn,Conditions,Clouds,dailyrainin,SoftwareType,DateUTC
2013-05-11 00:05:00,60.0,-41.1,29.34,SSE,157,10.0,15.0,1,0.06,,,0.00,Weather View 32 v70,2013-05-11 04:05:00,
2013-05-11 00:10:00,60.0,-41.1,29.34,SSE,157,6.0,15.0,1,0.05,,,0.00,Weather View 32 v70,2013-05-11 04:10:00,
2013-05-11 00:15:00,60.0,-41.1,29.34,South,180,6.0,15.0,1,0.05,,,0.00,Weather View 32 v70,2013-05-11 04:15:00,
2013-05-11 00:20:00,60.0,-41.1,29.33,South,180,8.0,15.0,1,0.04,,,0.00,Weather View 32 v70,2013-05-11 04:20:00,
2013-05-11 00:25:00,61.0,-40.5,29.34,SE,135,4.0,15.0,1,0.03,,,0.00,Weather View 32 v70,2013-05-11 04:25:00,
2013-05-11 00:30:00,61.0,-40.5,29.34,SSE,157,7.0,15.0,1,0.03,,,0.00,Weather View 32 v70,2013-05-11 04:30:00,
2013-05-11 00:35:00,61.0,-40.5,29.34,SSE,157,7.0,13.0,1,0.02,,,0.00,Weather View 32 v70,2013-05-11 04:35:00,
2013-05-11 00:40:00,61.0,-40.5,29.34,SSE,157,5.0,12.0,1,0.02,,,0.00,Weather View 32 v70,2013-05-11 04:40:00,
2013-05-11 00:45:00,60.0,-41.1,29.33,South,180,3.0,12.0,1,0.01,,,0.00,Weather View 32 v70,2013-05-11 04:45:00,
2013-05-11 00:50:00,60.0,-41.1,29.33,South,180,4.0,12.0,1,0.00,,,0.00,Weather View 32 v70,2013-05-11 04:50:00,
2013-05-11 00:55:00,60.0,-41.1,29.33,South,180,0.0,12.0,1,0.01,,,0.01,Weather View 32 v70,2013-05-11 04:55:00,
2013-05-11 01:00:00,60.0,-41.1,29.33,South,180,3.0,12.0,1,0.01,,,0.01,Weather View 32 v70,2013-05-11 05:00:00,
2013-05-11 01:05:00,60.0,-41.1,29.33,SSE,157,4.0,12.0,1,0.01,,,0.01,Weather View 32 v70,2013-05-11 05:05:00,
2013-05-11 01:10:00,60.0,-41.1,29.33,SSW,202,2.0,10.0,1,0.01,,,0.01,Weather View 32 v70,2013-05-11 05:10:00,
2013-05-11 01:20:00,61.0,-40.5,29.32,SW,225,1.0,10.0,1,0.01,,,0.01,Weather View 32 v70,2013-05-11 05:20:00,
2013-05-11 01:25:00,61.0,-40.5,29.32,West,270,0.0,10.0,1,0.01,,,0.01,Weather View 32 v70,2013-05-11 05:25:00,
2013-05-11 01:30:00,61.0,-40.5,29.32,WNW,292,0.0,9.0,1,0.01,,,0.01,Weather View 32 v70,2013-05-11 05:30:00,
2013-05-11 01:40:00,60.0,-41.1,29.32,North,360,0.0,6.0,1,0.01,,,0.01,Weather View 32 v70,2013-05-11 05:40:00,
2013-05-11 01:50:00,60.0,-41.1,29.32,North,360,0.0,6.0,1,0.01,,,0.01,Weather View 32 v70,2013-05-11 05:50:00,
2013-05-11 01:55:00,60.0,-41.1,29.32,North,360,0.0,6.0,1,0.00,,,0.01,Weather View 32 v70,2013-05-11 05:55:00,
2013-05-11 02:00:00,60.0,-41.1,29.31,North,360,0.0,6.0,1,0.00,,,0.01,Weather View 32 v70,2013-05-11 06:00:00,
2013-05-11 02:05:00,60.0,-41.1,29.31,North,360,0.0,6.0,1,0.00,,,0.01,Weather View 32 v70,2013-05-11 06:05:00,
2013-05-11 02:10:00,60.0,-41.1,29.31,NE,45,1.0,4.0,1,0.00,,,0.01,Weather View 32 v70,2013-05-11 06:10:00,
2013-05-11 02:20:00,60.0,-41.1,29.30,SE,135,2.0,6.0,1,0.01,,,0.02,Weather View 32 v70,2013-05-11 06:20:00,
2013-05-11 02:25:00,60.0,-41.1,29.30,ENE,67,2.0,6.0,1,0.01,,,0.02,Weather View 32 v70,2013-05-11 06:25:00,
2013-05-11 02:30:00,60.0,-41.1,29.30,SSW,202,3.0,6.0,1,0.01,,,0.02,Weather View 32 v70,2013-05-11 06:30:00,
2013-05-11 02:35:00,60.0,-41.1,29.30,SW,225,0.0,6.0,1,0.01,,,0.02,Weather View 32 v70,2013-05-11 06:35:00,
2013-05-11 02:40:00,60.0,-41.1,29.30,SW,225,0.0,6.0,1,0.01,,,0.02,Weather View 32 v70,2013-05-11 06:40:00,
2013-05-11 02:45:00,60.0,-41.1,29.30,SW,225,0.0,6.0,1,0.01,,,0.02,Weather View 32 v70,2013-05-11 06:45:00,
2013-05-11 02:50:00,60.0,-41.1,29.30,SW,225,3.0,6.0,1,0.01,,,0.02,Weather View 32 v70,2013-05-11 06:50:00,
2013-05-11 02:55:00,60.0,-41.1,29.30,South,180,3.0,6.0,1,0.01,,,0.02,Weather View 32 v70,2013-05-11 06:55:00,
2013-05-11 03:00:00,60.0,-41.1,29.30,South,180,0.0,6.0,1,0.01,,,0.02,Weather View 32 v70,2013-05-11 07:00:00,
2013-05-11 03:05:00,60.0,-41.1,29.30,South,180,2.0,6.0,1,0.01,,,0.02,Weather View 32 v70,2013-05-11 07:05:00,
2013-05-11 03:10:00,60.0,-41.1,29.30,South,180,0.0,6.0,1,0.01,,,0.02,Weather View 32 v70,2013-05-11 07:10:00,
2013-05-11 03:15:00,60.0,-41.1,29.30,South,180,0.0,6.0,1,0.00,,,0.02,Weather View 32 v70,2013-05-11 07:15:00,
2013-05-11 03:20:00,60.0,-41.1,29.30,South,180,0.0,5.0,1,0.00,,,0.02,Weather View 32 v70,2013-05-11 07:20:00,
2013-05-11 03:25:00,60.0,-41.1,29.29,South,180,0.0,5.0,1,0.00,,,0.02,Weather View 32 v70,2013-05-11 07:25:00,
2013-05-11 03:30:00,60.0,-41.1,29.29,South,180,0.0,5.0,1,0.00,,,0.02,Weather View 32 v70,2013-05-11 07:30:00,
2013-05-11 03:35:00,60.0,-41.1,29.29,South,180,0.0,5.0,1,0.00,,,0.02,Weather View 32 v70,2013-05-11 07:35:00,
2013-05-11 03:40:00,60.0,-41.1,29.29,South,180,0.0,5.0,1,0.00,,,0.02,Weather View 32 v70,2013-05-11 07:40:00,
2013-05-11 03:45:00,60.0,-41.1,29.29,South,180,0.0,5.0,1,0.00,,,0.02,Weather View 32 v70,2013-05-11 07:45:00,
2013-05-11 03:50:00,60.0,-41.1,29.28,South,180,1.0,5.0,1,0.00,,,0.02,Weather View 32 v70,2013-05-11 07:50:00,
2013-05-11 03:55:00,60.0,-41.1,29.28,SSE,157,1.0,5.0,1,0.00,,,0.02,Weather View 32 v70,2013-05-11 07:55:00,
2013-05-11 04:00:00,60.0,-41.1,29.28,SSE,157,3.0,5.0,1,0.00,,,0.02,Weather View 32 v70,2013-05-11 08:00:00,
2013-05-11 04:05:00,60.0,-41.1,29.29,South,180,3.0,5.0,1,0.00,,,0.02,Weather View 32 v70,2013-05-11 08:05:00,
2013-05-11 04:10:00,60.0,-41.1,29.29,South,180,2.0,5.0,1,0.00,,,0.02,Weather View 32 v70,2013-05-11 08:10:00,
2013-05-11 04:15:00,60.0,-41.1,29.29,South,180,0.0,5.0,1,0.00,,,0.02,Weather View 32 v70,2013-05-11 08:15:00,
2013-05-11 04:25:00,60.0,-41.1,29.29,South,180,0.0,5.0,1,0.00,,,0.02,Weather View 32 v70,2013-05-11 08:25:00,
2013-05-11 04:30:00,60.0,-41.1,29.28,South,180,0.0,5.0,1,0.01,,,0.03,Weather View 32 v70,2013-05-11 08:30:00,
2013-05-11 04:35:00,60.0,-41.1,29.28,SSE,157,0.0,5.0,1,0.01,,,0.03,Weather View 32 v70,2013-05-11 08:35:00,
2013-05-11 04:40:00,60.0,-41.1,29.28,South,180,7.0,8.0,1,0.01,,,0.03,Weather View 32 v70,2013-05-11 08:40:00,
2013-05-11 04:50:00,60.0,-41.1,29.27,South,180,5.0,8.0,1,0.02,,,0.04,Weather View 32 v70,2013-05-11 08:50:00,
2013-05-11 04:55:00,61.0,-40.5,29.27,SSE,157,4.0,8.0,1,0.02,,,0.04,Weather View 32 v70,2013-05-11 08:55:00,
2013-05-11 05:00:00,61.0,-40.5,29.27,SSE,157,2.0,8.0,1,0.02,,,0.04,Weather View 32 v70,2013-05-11 09:00:00,
2013-05-11 05:05:00,61.0,-40.5,29.27,ESE,112,2.0,8.0,1,0.02,,,0.04,Weather View 32 v70,2013-05-11 09:05:00,
2013-05-11 05:10:00,61.0,-20.6,29.26,ESE,112,3.0,8.0,3,0.03,,,0.05,Weather View 32 v70,2013-05-11 09:10:00,
2013-05-11 05:15:00,61.0,-0.8,29.26,SE,135,3.0,8.0,8,0.03,,,0.05,Weather View 32 v70,2013-05-11 09:15:00,
2013-05-11 05:20:00,61.0,7.9,29.26,SE,135,3.0,8.0,12,0.03,,,0.05,Weather View 32 v70,2013-05-11 09:20:00,
2013-05-11 05:25:00,61.0,3.9,29.26,SSE,157,1.0,8.0,10,0.03,,,0.05,Weather View 32 v70,2013-05-11 09:25:00,
2013-05-11 05:30:00,61.0,3.9,29.26,SE,135,3.0,8.0,10,0.02,,,0.05,Weather View 32 v70,2013-05-11 09:30:00,
2013-05-11 05:40:00,60.0,7.1,29.26,SE,135,5.0,8.0,12,0.02,,,0.05,Weather View 32 v70,2013-05-11 09:40:00,
2013-05-11 05:50:00,60.0,-41.1,29.27,SE,135,6.0,6.0,1,0.01,,,0.05,Weather View 32 v70,2013-05-11 09:50:00,
2013-05-11 05:55:00,60.0,-41.1,29.27,SE,135,4.0,6.0,1,0.01,,,0.05,Weather View 32 v70,2013-05-11 09:55:00,
2013-05-11 06:00:00,60.0,-41.1,29.27,SE,135,5.0,7.0,1,0.01,,,0.05,Weather View 32 v70,2013-05-11 10:00:00,
2013-05-11 06:05:00,61.0,-20.6,29.27,SE,135,7.0,8.0,3,0.01,,,0.05,Weather View 32 v70,2013-05-11 10:05:00,
2013-05-11 06:10:00,60.0,-7.6,29.27,East,90,8.0,8.0,6,0.00,,,0.05,Weather View 32 v70,2013-05-11 10:10:00,
2013-05-11 06:15:00,61.0,-0.8,29.27,SE,135,5.0,9.0,8,0.00,,,0.05,Weather View 32 v70,2013-05-11 10:15:00,
2013-05-11 06:20:00,61.0,7.9,29.27,ESE,112,5.0,9.0,12,0.00,,,0.05,Weather View 32 v70,2013-05-11 10:20:00,
2013-05-11 06:25:00,61.0,7.9,29.27,SW,225,6.0,9.0,12,0.00,,,0.05,Weather View 32 v70,2013-05-11 10:25:00,
2013-05-11 06:30:00,61.0,7.9,29.27,South,180,5.0,9.0,12,0.00,,,0.05,Weather View 32 v70,2013-05-11 10:30:00,
2013-05-11 06:40:00,61.0,15.8,29.27,West,270,2.0,9.0,17,0.00,,,0.05,Weather View 32 v70,2013-05-11 10:40:00,
2013-05-11 06:45:00,61.0,20.7,29.27,NNE,22,2.0,9.0,21,0.00,,,0.05,Weather View 32 v70,2013-05-11 10:45:00,
2013-05-11 06:50:00,61.0,22.9,29.28,NNE,22,4.0,9.0,23,0.00,,,0.05,Weather View 32 v70,2013-05-11 10:50:00,
2013-05-11 06:55:00,61.0,22.9,29.28,NNE,22,1.0,9.0,23,0.00,,,0.05,Weather View 32 v70,2013-05-11 10:55:00,
2013-05-11 07:00:00,61.0,18.4,29.27,NNE,22,2.0,9.0,19,0.00,,,0.05,Weather View 32 v70,2013-05-11 11:00:00,
2013-05-11 07:05:00,61.0,12.9,29.27,NNE,22,3.0,9.0,15,0.00,,,0.05,Weather View 32 v70,2013-05-11 11:05:00,
2013-05-11 07:10:00,61.0,12.9,29.27,NNE,22,0.0,9.0,15,0.00,,,0.05,Weather View 32 v70,2013-05-11 11:10:00,
2013-05-11 07:15:00,61.0,11.4,29.27,NNE,22,0.0,9.0,14,0.00,,,0.05,Weather View 32 v70,2013-05-11 11:15:00,
2013-05-11 07:20:00,61.0,11.4,29.28,NNE,22,0.0,9.0,14,0.00,,,0.05,Weather View 32 v70,2013-05-11 11:20:00,
2013-05-11 07:25:00,61.0,9.7,29.28,ENE,67,0.0,8.0,13,0.00,,,0.05,Weather View 32 v70,2013-05-11 11:25:00,
2013-05-11 07:30:00,61.0,7.9,29.27,SW,225,3.0,7.0,12,0.00,,,0.05,Weather View 32 v70,2013-05-11 11:30:00,
2013-05-11 07:40:00,61.0,-10.6,29.27,SW,225,0.0,6.0,5,0.01,,,0.06,Weather View 32 v70,2013-05-11 11:40:00,
2013-05-11 07:45:00,61.0,-6.8,29.27,SW,225,1.0,6.0,6,0.01,,,0.06,Weather View 32 v70,2013-05-11 11:45:00,
2013-05-11 07:50:00,61.0,-0.8,29.28,SW,225,2.0,6.0,8,0.01,,,0.06,Weather View 32 v70,2013-05-11 11:50:00,
2013-05-11 07:55:00,61.0,-10.6,29.27,WSW,247,1.0,6.0,5,0.01,,,0.06,Weather View 32 v70,2013-05-11 11:55:00,
2013-05-11 08:00:00,61.0,-20.6,29.27,WSW,247,2.0,6.0,3,0.01,,,0.06,Weather View 32 v70,2013-05-11 12:00:00,
2013-05-11 08:05:00,61.0,-40.5,29.27,WSW,247,1.0,6.0,1,0.01,,,0.06,Weather View 32 v70,2013-05-11 12:05:00,
2013-05-11 08:10:00,62.0,-39.9,29.27,SSE,157,0.0,6.0,1,0.01,,,0.06,Weather View 32 v70,2013-05-11 12:10:00,
2013-05-11 08:15:00,62.0,-39.9,29.26,SSW,202,7.0,9.0,1,0.01,,,0.06,Weather View 32 v70,2013-05-11 12:15:00,
2013-05-11 08:20:00,62.0,30.1,29.26,SSE,157,4.0,10.0,30,0.01,,,0.06,Weather View 32 v70,2013-05-11 12:20:00,
2013-05-11 08:25:00,62.0,51.7,29.25,SSE,157,7.0,10.0,69,0.01,,,0.06,Weather View 32 v70,2013-05-11 12:25:00,
2013-05-11 08:30:00,63.0,58.1,29.26,SSE,157,4.0,10.0,84,0.01,,,0.06,Weather View 32 v70,2013-05-11 12:30:00,
2013-05-11 08:40:00,64.0,61.9,29.26,SSE,157,6.0,10.0,93,0.00,,,0.06,Weather View 32 v70,2013-05-11 12:40:00,
2013-05-11 08:45:00,64.0,61.9,29.26,SE,135,5.0,10.0,93,0.00,,,0.06,Weather View 32 v70,2013-05-11 12:45:00,
2013-05-11 08:50:00,64.0,62.2,29.27,SE,135,2.0,10.0,94,0.00,,,0.06,Weather View 32 v70,2013-05-11 12:50:00,
2013-05-11 08:55:00,65.0,62.9,29.26,SE,135,1.0,10.0,93,0.00,,,0.06,Weather View 32 v70,2013-05-11 12:55:00,
2013-05-11 09:00:00,65.0,61.7,29.26,South,180,4.0,10.0,89,0.00,,,0.06,Weather View 32 v70,2013-05-11 13:00:00,
2013-05-11 09:05:00,65.0,60.7,29.27,SSW,202,1.0,10.0,86,0.00,,,0.06,Weather View 32 v70,2013-05-11 13:05:00,
2013-05-11 09:15:00,64.0,61.0,29.27,South,180,2.0,10.0,90,0.00,,,0.06,Weather View 32 v70,2013-05-11 13:15:00,
2013-05-11 09:20:00,65.0,61.0,29.27,South,180,2.0,10.0,87,0.00,,,0.06,Weather View 32 v70,2013-05-11 13:20:00,
2013-05-11 09:25:00,65.0,60.7,29.27,SSW,202,2.0,10.0,86,0.00,,,0.06,Weather View 32 v70,2013-05-11 13:25:00,
2013-05-11 09:30:00,65.0,60.4,29.27,SSW,202,4.0,10.0,85,0.00,,,0.06,Weather View 32 v70,2013-05-11 13:30:00,
2013-05-11 09:35:00,65.0,60.7,29.27,SSE,157,3.0,9.0,86,0.00,,,0.06,Weather View 32 v70,2013-05-11 13:35:00,
2013-05-11 09:40:00,65.0,61.0,29.27,SE,135,1.0,7.0,87,0.00,,,0.06,Weather View 32 v70,2013-05-11 13:40:00,
2013-05-11 09:45:00,65.0,61.0,29.27,NE,45,0.0,7.0,87,0.00,,,0.06,Weather View 32 v70,2013-05-11 13:45:00,
2013-05-11 09:50:00,66.0,60.7,29.27,NE,45,0.0,7.0,83,0.00,,,0.06,Weather View 32 v70,2013-05-11 13:50:00,
2013-05-11 09:55:00,66.0,61.3,29.28,North,360,3.0,7.0,85,0.00,,,0.06,Weather View 32 v70,2013-05-11 13:55:00,
2013-05-11 10:05:00,66.0,63.9,29.27,SSE,157,3.0,8.0,93,0.00,,,0.06,Weather View 32 v70,2013-05-11 14:05:00,
2013-05-11 10:15:00,65.0,62.0,29.27,SW,225,11.0,15.0,90,0.00,,,0.06,Weather View 32 v70,2013-05-11 14:15:00,
2013-05-11 10:20:00,65.0,62.0,29.27,SW,225,15.0,15.0,90,0.00,,,0.06,Weather View 32 v70,2013-05-11 14:20:00,
2013-05-11 10:25:00,65.0,62.0,29.27,SW,225,12.0,16.0,90,0.00,,,0.06,Weather View 32 v70,2013-05-11 14:25:00,
2013-05-11 10:30:00,65.0,62.0,29.27,SSW,202,7.0,16.0,90,0.00,,,0.06,Weather View 32 v70,2013-05-11 14:30:00,
2013-05-11 10:35:00,65.0,62.3,29.27,SSW,202,13.0,16.0,91,0.00,,,0.06,Weather View 32 v70,2013-05-11 14:35:00,
2013-05-11 10:40:00,64.0,61.9,29.27,SSW,202,14.0,16.0,93,0.00,,,0.06,Weather View 32 v70,2013-05-11 14:40:00,
2013-05-11 10:45:00,64.0,61.9,29.27,SW,225,7.0,16.0,93,0.00,,,0.06,Weather View 32 v70,2013-05-11 14:45:00,
2013-05-11 10:55:00,64.0,61.9,29.27,South,180,3.0,16.0,93,0.00,,,0.06,Weather View 32 v70,2013-05-11 14:55:00,
2013-05-11 11:00:00,64.0,61.9,29.27,SSW,202,10.0,16.0,93,0.00,,,0.06,Weather View 32 v70,2013-05-11 15:00:00,
2013-05-11 11:05:00,64.0,61.9,29.27,South,180,7.0,16.0,93,0.00,,,0.06,Weather View 32 v70,2013-05-11 15:05:00,
2013-05-11 11:10:00,64.0,61.9,29.27,SSW,202,8.0,16.0,93,0.00,,,0.06,Weather View 32 v70,2013-05-11 15:10:00,
2013-05-11 11:15:00,64.0,61.9,29.27,SW,225,4.0,16.0,93,0.00,,,0.06,Weather View 32 v70,2013-05-11 15:15:00,
2013-05-11 11:20:00,64.0,61.9,29.26,SSW,202,6.0,16.0,93,0.00,,,0.06,Weather View 32 v70,2013-05-11 15:20:00,
2013-05-11 11:25:00,64.0,61.9,29.27,SW,225,6.0,16.0,93,0.00,,,0.06,Weather View 32 v70,2013-05-11 15:25:00,
2013-05-11 11:30:00,64.0,61.9,29.27,South,180,4.0,16.0,93,0.00,,,0.06,Weather View 32 v70,2013-05-11 15:30:00,
2013-05-11 11:35:00,64.0,61.6,29.27,South,180,9.0,16.0,92,0.00,,,0.06,Weather View 32 v70,2013-05-11 15:35:00,
2013-05-11 11:45:00,64.0,61.6,29.27,SW,225,5.0,13.0,92,0.01,,,0.07,Weather View 32 v70,2013-05-11 15:45:00,
2013-05-11 11:50:00,64.0,61.9,29.26,SW,225,6.0,13.0,93,0.01,,,0.07,Weather View 32 v70,2013-05-11 15:50:00,
2013-05-11 11:55:00,64.0,61.9,29.26,SSW,202,8.0,13.0,93,0.01,,,0.07,Weather View 32 v70,2013-05-11 15:55:00,
2013-05-11 12:00:00,64.0,61.9,29.26,SSE,157,5.0,13.0,93,0.01,,,0.07,Weather View 32 v70,2013-05-11 16:00:00,
2013-05-11 12:10:00,64.0,61.9,29.26,SW,225,5.0,12.0,93,0.01,,,0.07,Weather View 32 v70,2013-05-11 16:10:00,
2013-05-11 12:15:00,64.0,61.3,29.26,SSW,202,6.0,12.0,91,0.02,,,0.08,Weather View 32 v70,2013-05-11 16:15:00,
2013-05-11 12:20:00,63.0,58.4,29.26,SSW,202,6.0,12.0,85,0.03,,,0.09,Weather View 32 v70,2013-05-11 16:20:00,
2013-05-11 12:25:00,63.0,57.1,29.26,SSE,157,4.0,12.0,81,0.04,,,0.10,Weather View 32 v70,2013-05-11 16:25:00,
2013-05-11 12:30:00,64.0,55.9,29.26,SE,135,3.0,11.0,75,0.04,,,0.10,Weather View 32 v70,2013-05-11 16:30:00,
2013-05-11 12:35:00,64.0,56.6,29.26,SSE,157,3.0,11.0,77,0.04,,,0.10,Weather View 32 v70,2013-05-11 16:35:00,
2013-05-11 12:45:00,65.0,62.3,29.25,South,180,7.0,11.0,91,0.03,,,0.10,Weather View 32 v70,2013-05-11 16:45:00,
2013-05-11 12:50:00,66.0,63.9,29.25,South,180,5.0,12.0,93,0.03,,,0.10,Weather View 32 v70,2013-05-11 16:50:00,
2013-05-11 12:55:00,66.0,63.9,29.25,SSE,157,6.0,12.0,93,0.03,,,0.10,Weather View 32 v70,2013-05-11 16:55:00,
2013-05-11 13:00:00,66.0,63.6,29.25,SSW,202,9.0,12.0,92,0.03,,,0.10,Weather View 32 v70,2013-05-11 17:00:00,
2013-05-11 13:05:00,67.0,64.6,29.24,South,180,8.0,12.0,92,0.03,,,0.10,Weather View 32 v70,2013-05-11 17:05:00,
2013-05-11 13:10:00,68.0,65.3,29.24,SSW,202,2.0,12.0,91,0.03,,,0.10,Weather View 32 v70,2013-05-11 17:10:00,
2013-05-11 13:15:00,68.0,64.6,29.24,SW,225,10.0,12.0,89,0.02,,,0.10,Weather View 32 v70,2013-05-11 17:15:00,
2013-05-11 13:20:00,69.0,64.3,29.24,SSW,202,9.0,12.0,85,0.01,,,0.10,Weather View 32 v70,2013-05-11 17:20:00,
2013-05-11 13:25:00,69.0,63.6,29.24,SSE,157,6.0,12.0,83,0.00,,,0.10,Weather View 32 v70,2013-05-11 17:25:00,
2013-05-11 13:30:00,69.0,64.3,29.23,SSW,202,6.0,12.0,85,0.00,,,0.10,Weather View 32 v70,2013-05-11 17:30:00,
2013-05-11 13:40:00,70.0,64.2,29.23,South,180,5.0,12.0,82,0.00,,,0.10,Weather View 32 v70,2013-05-11 17:40:00,
2013-05-11 13:45:00,71.0,65.9,29.23,SSW,202,6.0,12.0,84,0.00,,,0.10,Weather View 32 v70,2013-05-11 17:45:00,
2013-05-11 13:50:00,71.0,63.0,29.23,SW,225,6.0,14.0,76,0.00,,,0.10,Weather View 32 v70,2013-05-11 17:50:00,
2013-05-11 13:55:00,71.0,61.9,29.23,SSW,202,9.0,16.0,73,0.00,,,0.10,Weather View 32 v70,2013-05-11 17:55:00,
2013-05-11 14:00:00,70.0,61.3,29.24,SW,225,12.0,19.0,74,0.01,,,0.11,Weather View 32 v70,2013-05-11 18:00:00,
2013-05-11 14:05:00,70.0,61.7,29.23,SW,225,14.0,24.0,75,0.01,,,0.11,Weather View 32 v70,2013-05-11 18:05:00,
2013-05-11 14:10:00,69.0,61.8,29.24,SW,225,12.0,24.0,78,0.01,,,0.11,Weather View 32 v70,2013-05-11 18:10:00,
2013-05-11 14:15:00,70.0,62.8,29.24,South,180,10.0,24.0,78,0.01,,,0.11,Weather View 32 v70,2013-05-11 18:15:00,
2013-05-11 14:20:00,70.0,61.3,29.23,SW,225,13.0,24.0,74,0.01,,,0.11,Weather View 32 v70,2013-05-11 18:20:00,
2013-05-11 14:30:00,71.0,61.1,29.23,South,180,10.0,24.0,71,0.01,,,0.11,Weather View 32 v70,2013-05-11 18:30:00,
2013-05-11 14:35:00,70.0,60.9,29.23,SSW,202,15.0,24.0,73,0.01,,,0.11,Weather View 32 v70,2013-05-11 18:35:00,
2013-05-11 14:40:00,69.0,60.7,29.23,SSW,202,12.0,24.0,75,0.01,,,0.11,Weather View 32 v70,2013-05-11 18:40:00,
2013-05-11 14:45:00,69.0,60.3,29.23,SW,225,13.0,24.0,74,0.01,,,0.11,Weather View 32 v70,2013-05-11 18:45:00,
2013-05-11 14:50:00,69.0,60.7,29.23,SW,225,9.0,24.0,75,0.01,,,0.11,Weather View 32 v70,2013-05-11 18:50:00,
2013-05-11 14:55:00,69.0,61.5,29.22,SSW,202,9.0,24.0,77,0.01,,,0.11,Weather View 32 v70,2013-05-11 18:55:00,
2013-05-11 15:00:00,70.0,62.8,29.22,SW,225,12.0,24.0,78,0.00,,,0.11,Weather View 32 v70,2013-05-11 19:00:00,
2013-05-11 15:05:00,69.0,61.8,29.22,SW,225,13.0,21.0,78,0.00,,,0.11,Weather View 32 v70,2013-05-11 19:05:00,
2013-05-11 15:10:00,69.0,60.7,29.22,SW,225,14.0,21.0,75,0.00,,,0.11,Weather View 32 v70,2013-05-11 19:10:00,
2013-05-11 15:15:00,69.0,61.1,29.22,SW,225,10.0,21.0,76,0.00,,,0.11,Weather View 32 v70,2013-05-11 19:15:00,
2013-05-11 15:25:00,69.0,60.7,29.22,SW,225,11.0,21.0,75,0.00,,,0.11,Weather View 32 v70,2013-05-11 19:25:00,
2013-05-11 15:30:00,69.0,61.1,29.21,SSE,157,6.0,21.0,76,0.00,,,0.11,Weather View 32 v70,2013-05-11 19:30:00,
2013-05-11 15:35:00,70.0,62.4,29.21,SW,225,9.0,20.0,77,0.00,,,0.11,Weather View 32 v70,2013-05-11 19:35:00,
2013-05-11 15:45:00,70.0,60.9,29.20,SSW,202,8.0,17.0,73,0.00,,,0.11,Weather View 32 v70,2013-05-11 19:45:00,
2013-05-11 15:50:00,70.0,59.7,29.20,SW,225,9.0,17.0,70,0.00,,,0.11,Weather View 32 v70,2013-05-11 19:50:00,
2013-05-11 15:55:00,70.0,60.9,29.22,SW,225,15.0,17.0,73,0.00,,,0.11,Weather View 32 v70,2013-05-11 19:55:00,
2013-05-11 16:00:00,68.0,60.9,29.23,WSW,247,8.0,22.0,78,0.00,,,0.11,Weather View 32 v70,2013-05-11 20:00:00,
2013-05-11 16:05:00,66.0,60.7,29.23,SW,225,9.0,22.0,83,0.01,,,0.12,Weather View 32 v70,2013-05-11 20:05:00,
2013-05-11 16:10:00,66.0,60.7,29.23,SSW,202,9.0,22.0,83,0.01,,,0.12,Weather View 32 v70,2013-05-11 20:10:00,
2013-05-11 16:20:00,66.0,61.0,29.22,SSW,202,6.0,22.0,84,0.01,,,0.12,Weather View 32 v70,2013-05-11 20:20:00,
2013-05-11 16:25:00,66.0,59.3,29.21,SW,225,8.0,22.0,79,0.01,,,0.12,Weather View 32 v70,2013-05-11 20:25:00,
2013-05-11 16:30:00,67.0,60.6,29.22,SSW,202,9.0,22.0,80,0.01,,,0.12,Weather View 32 v70,2013-05-11 20:30:00,
2013-05-11 16:35:00,67.0,60.2,29.22,West,270,10.0,22.0,79,0.01,,,0.12,Weather View 32 v70,2013-05-11 20:35:00,
2013-05-11 16:40:00,67.0,61.3,29.22,WSW,247,11.0,22.0,82,0.01,,,0.12,Weather View 32 v70,2013-05-11 20:40:00,
2013-05-11 16:45:00,67.0,61.6,29.22,SW,225,5.0,22.0,83,0.01,,,0.12,Weather View 32 v70,2013-05-11 20:45:00,
2013-05-11 16:50:00,67.0,61.6,29.22,WSW,247,2.0,22.0,83,0.01,,,0.12,Weather View 32 v70,2013-05-11 20:50:00,
2013-05-11 16:55:00,67.0,60.6,29.22,SSW,202,6.0,22.0,80,0.01,,,0.12,Weather View 32 v70,2013-05-11 20:55:00,
2013-05-11 17:00:00,68.0,61.9,29.22,West,270,6.0,17.0,81,0.01,,,0.12,Weather View 32 v70,2013-05-11 21:00:00,
2013-05-11 17:05:00,69.0,62.2,29.22,WNW,292,8.0,15.0,79,0.00,,,0.12,Weather View 32 v70,2013-05-11 21:05:00,
2013-05-11 17:15:00,69.0,61.1,29.21,WSW,247,7.0,15.0,76,0.00,,,0.12,Weather View 32 v70,2013-05-11 21:15:00,
2013-05-11 17:20:00,69.0,60.7,29.20,WSW,247,9.0,15.0,75,0.00,,,0.12,Weather View 32 v70,2013-05-11 21:20:00,
2013-05-11 17:25:00,69.0,61.5,29.20,WSW,247,6.0,15.0,77,0.00,,,0.12,Weather View 32 v70,2013-05-11 21:25:00,
2013-05-11 17:30:00,69.0,60.7,29.20,WSW,247,8.0,15.0,75,0.00,,,0.12,Weather View 32 v70,2013-05-11 21:30:00,
2013-05-11 17:35:00,69.0,61.8,29.20,South,180,0.0,15.0,78,0.00,,,0.12,Weather View 32 v70,2013-05-11 21:35:00,
2013-05-11 17:40:00,70.0,61.7,29.20,SW,225,6.0,14.0,75,0.00,,,0.12,Weather View 32 v70,2013-05-11 21:40:00,
2013-05-11 17:45:00,70.0,61.3,29.21,West,270,3.0,14.0,74,0.00,,,0.12,Weather View 32 v70,2013-05-11 21:45:00,
2013-05-11 17:50:00,70.0,60.9,29.20,NE,45,6.0,14.0,73,0.00,,,0.12,Weather View 32 v70,2013-05-11 21:50:00,
2013-05-11 17:55:00,71.0,61.5,29.20,SSE,157,3.0,14.0,72,0.00,,,0.12,Weather View 32 v70,2013-05-11 21:55:00,
2013-05-11 18:00:00,70.0,61.3,29.21,SW,225,4.0,14.0,74,0.00,,,0.12,Weather View 32 v70,2013-05-11 22:00:00,
2013-05-11 18:10:00,71.0,61.9,29.20,South,180,0.0,14.0,73,0.00,,,0.12,Weather View 32 v70,2013-05-11 22:10:00,
2013-05-11 18:15:00,70.0,60.9,29.21,ENE,67,0.0,11.0,73,0.00,,,0.12,Weather View 32 v70,2013-05-11 22:15:00,
2013-05-11 18:20:00,71.0,61.1,29.21,NW,315,5.0,11.0,71,0.00,,,0.12,Weather View 32 v70,2013-05-11 22:20:00,
2013-05-11 18:25:00,71.0,61.1,29.21,SSW,202,3.0,11.0,71,0.00,,,0.12,Weather View 32 v70,2013-05-11 22:25:00,
2013-05-11 18:30:00,70.0,60.1,29.21,West,270,1.0,11.0,71,0.00,,,0.12,Weather View 32 v70,2013-05-11 22:30:00,
2013-05-11 18:35:00,70.0,60.1,29.21,WNW,292,0.0,11.0,71,0.00,,,0.12,Weather View 32 v70,2013-05-11 22:35:00,
2013-05-11 18:40:00,70.0,60.1,29.21,SW,225,7.0,11.0,71,0.00,,,0.12,Weather View 32 v70,2013-05-11 22:40:00,
2013-05-11 18:45:00,70.0,58.5,29.21,SW,225,7.0,13.0,67,0.00,,,0.12,Weather View 32 v70,2013-05-11 22:45:00,
2013-05-11 18:50:00,70.0,58.1,29.21,South,180,8.0,13.0,66,0.00,,,0.12,Weather View 32 v70,2013-05-11 22:50:00,
2013-05-11 18:55:00,70.0,57.7,29.21,South,180,4.0,13.0,65,0.00,,,0.12,Weather View 32 v70,2013-05-11 22:55:00,
2013-05-11 19:05:00,69.0,56.7,29.21,ESE,112,4.0,13.0,65,0.00,,,0.12,Weather View 32 v70,2013-05-11 23:05:00,
2013-05-11 19:10:00,69.0,57.1,29.21,SW,225,3.0,13.0,66,0.00,,,0.12,Weather View 32 v70,2013-05-11 23:10:00,
2013-05-11 19:15:00,69.0,57.1,29.22,WSW,247,6.0,13.0,66,0.00,,,0.12,Weather View 32 v70,2013-05-11 23:15:00,
2013-05-11 19:20:00,69.0,55.8,29.22,WSW,247,2.0,13.0,63,0.00,,,0.12,Weather View 32 v70,2013-05-11 23:20:00,
2013-05-11 19:25:00,69.0,55.8,29.22,West,270,2.0,13.0,63,0.00,,,0.12,Weather View 32 v70,2013-05-11 23:25:00,
2013-05-11 19:30:00,69.0,55.8,29.23,WSW,247,6.0,13.0,63,0.00,,,0.12,Weather View 32 v70,2013-05-11 23:30:00,
2013-05-11 19:35:00,69.0,57.6,29.23,SSW,202,2.0,13.0,67,0.00,,,0.12,Weather View 32 v70,2013-05-11 23:35:00,
2013-05-11 19:40:00,68.0,59.0,29.23,WSW,247,3.0,13.0,73,0.00,,,0.12,Weather View 32 v70,2013-05-11 23:40:00,
2013-05-11 19:45:00,68.0,59.0,29.23,SW,225,4.0,13.0,73,0.00,,,0.12,Weather View 32 v70,2013-05-11 23:45:00,
2013-05-11 19:50:00,67.0,58.8,29.23,West,270,0.0,13.0,75,0.00,,,0.12,Weather View 32 v70,2013-05-11 23:50:00,
2013-05-11 20:00:00,66.0,59.3,29.23,WSW,247,0.0,12.0,79,0.00,,,0.12,Weather View 32 v70,2013-05-12 00:00:00,
2013-05-11 20:05:00,65.0,58.7,29.23,West,270,3.0,12.0,80,0.00,,,0.12,Weather View 32 v70,2013-05-12 00:05:00,
2013-05-11 20:10:00,65.0,57.2,29.23,West,270,0.0,12.0,76,0.00,,,0.12,Weather View 32 v70,2013-05-12 00:10:00,
2013-05-11 20:15:00,65.0,57.6,29.23,WSW,247,3.0,12.0,77,0.00,,,0.12,Weather View 32 v70,2013-05-12 00:15:00,
2013-05-11 20:20:00,65.0,57.6,29.23,SW,225,1.0,10.0,77,0.00,,,0.12,Weather View 32 v70,2013-05-12 00:20:00,
2013-05-11 20:25:00,65.0,57.6,29.23,SW,225,5.0,10.0,77,0.00,,,0.12,Weather View 32 v70,2013-05-12 00:25:00,
2013-05-11 20:30:00,65.0,56.9,29.23,West,270,0.0,7.0,75,0.00,,,0.12,Weather View 32 v70,2013-05-12 00:30:00,
2013-05-11 20:35:00,65.0,57.6,29.22,WSW,247,0.0,7.0,77,0.00,,,0.12,Weather View 32 v70,2013-05-12 00:35:00,
2013-05-11 20:40:00,64.0,56.6,29.23,South,180,0.0,7.0,77,0.00,,,0.12,Weather View 32 v70,2013-05-12 00:40:00,
2013-05-11 20:45:00,64.0,56.6,29.23,WNW,292,2.0,7.0,77,0.00,,,0.12,Weather View 32 v70,2013-05-12 00:45:00,
2013-05-11 20:55:00,64.0,57.3,29.22,NE,45,0.0,7.0,79,0.00,,,0.12,Weather View 32 v70,2013-05-12 00:55:00,
2013-05-11 21:05:00,63.0,56.4,29.23,North,360,2.0,7.0,79,0.00,,,0.12,Weather View 32 v70,2013-05-12 01:05:00,
2013-05-11 21:10:00,63.0,56.4,29.23,North,360,3.0,7.0,79,0.00,,,0.12,Weather View 32 v70,2013-05-12 01:10:00,
2013-05-11 21:15:00,63.0,56.4,29.23,NNE,22,3.0,7.0,79,0.00,,,0.12,Weather View 32 v70,2013-05-12 01:15:00,
2013-05-11 21:20:00,63.0,56.4,29.23,North,360,1.0,7.0,79,0.00,,,0.12,Weather View 32 v70,2013-05-12 01:20:00,
2013-05-11 21:25:00,63.0,56.0,29.23,NW,315,1.0,7.0,78,0.00,,,0.12,Weather View 32 v70,2013-05-12 01:25:00,
2013-05-11 21:30:00,63.0,55.3,29.24,NNW,337,1.0,9.0,76,0.00,,,0.12,Weather View 32 v70,2013-05-12 01:30:00,
2013-05-11 21:35:00,63.0,56.4,29.23,West,270,6.0,9.0,79,0.00,,,0.12,Weather View 32 v70,2013-05-12 01:35:00,
2013-05-11 21:40:00,62.0,56.1,29.23,West,270,3.0,9.0,81,0.00,,,0.12,Weather View 32 v70,2013-05-12 01:40:00,
2013-05-11 21:45:00,62.0,55.7,29.23,West,270,2.0,9.0,80,0.00,,,0.12,Weather View 32 v70,2013-05-12 01:45:00,
2013-05-11 21:55:00,61.0,56.1,29.24,WSW,247,0.0,9.0,84,0.00,,,0.12,Weather View 32 v70,2013-05-12 01:55:00,
2013-05-11 22:00:00,61.0,56.4,29.24,West,270,0.0,9.0,85,0.00,,,0.12,Weather View 32 v70,2013-05-12 02:00:00,
2013-05-11 22:05:00,61.0,56.8,29.25,West,270,0.0,9.0,86,0.00,,,0.12,Weather View 32 v70,2013-05-12 02:05:00,
2013-05-11 22:10:00,61.0,56.4,29.24,West,270,3.0,9.0,85,0.00,,,0.12,Weather View 32 v70,2013-05-12 02:10:00,
2013-05-11 22:15:00,61.0,56.1,29.24,West,270,2.0,9.0,84,0.00,,,0.12,Weather View 32 v70,2013-05-12 02:15:00,
2013-05-11 22:20:00,61.0,55.8,29.24,SW,225,1.0,9.0,83,0.00,,,0.12,Weather View 32 v70,2013-05-12 02:20:00,
2013-05-11 22:25:00,61.0,55.8,29.24,SW,225,0.0,9.0,83,0.00,,,0.12,Weather View 32 v70,2013-05-12 02:25:00,
2013-05-11 22:30:00,60.0,54.5,29.25,East,90,1.0,7.0,82,0.00,,,0.12,Weather View 32 v70,2013-05-12 02:30:00,
2013-05-11 22:35:00,61.0,54.8,29.25,NE,45,1.0,7.0,80,0.00,,,0.12,Weather View 32 v70,2013-05-12 02:35:00,
2013-05-11 22:40:00,60.0,54.8,29.24,NE,45,1.0,7.0,83,0.00,,,0.12,Weather View 32 v70,2013-05-12 02:40:00,
2013-05-11 22:50:00,60.0,54.5,29.24,SW,225,0.0,7.0,82,0.00,,,0.12,Weather View 32 v70,2013-05-12 02:50:00,
2013-05-11 23:00:00,59.0,55.1,29.24,SW,225,1.0,7.0,87,0.00,,,0.12,Weather View 32 v70,2013-05-12 03:00:00,
2013-05-11 23:05:00,59.0,55.4,29.24,West,270,2.0,7.0,88,0.00,,,0.12,Weather View 32 v70,2013-05-12 03:05:00,
2013-05-11 23:10:00,59.0,55.1,29.24,West,270,0.0,7.0,87,0.00,,,0.12,Weather View 32 v70,2013-05-12 03:10:00,
2013-05-11 23:15:00,58.0,54.1,29.24,NW,315,0.0,7.0,87,0.00,,,0.12,Weather View 32 v70,2013-05-12 03:15:00,
2013-05-11 23:20:00,58.0,54.8,29.23,NW,315,0.0,6.0,89,0.00,,,0.12,Weather View 32 v70,2013-05-12 03:20:00,
2013-05-11 23:25:00,58.0,54.8,29.23,WSW,247,2.0,6.0,89,0.00,,,0.12,Weather View 32 v70,2013-05-12 03:25:00,
2013-05-11 23:30:00,58.0,55.1,29.24,WSW,247,4.0,6.0,90,0.00,,,0.12,Weather View 32 v70,2013-05-12 03:30:00,
2013-05-11 23:35:00,58.0,55.1,29.24,SW,225,1.0,6.0,90,0.00,,,0.12,Weather View 32 v70,2013-05-12 03:35:00,
2013-05-11 23:40:00,58.0,55.1,29.24,South,180,2.0,6.0,90,0.00,,,0.12,Weather View 32 v70,2013-05-12 03:40:00,
2013-05-11 23:45:00,58.0,54.8,29.24,West,270,6.0,7.0,89,0.00,,,0.12,Weather View 32 v70,2013-05-12 03:45:00,
2013-05-11 23:55:00,61.0,53.4,29.24,WSW,247,6.0,11.0,76,0.00,,,0.12,Weather View 32 v70,2013-05-12 03:55:00,